THOR BURNER 2A DEB

基本信息
目录编号:
28593
目录名称:
THOR BURNER 2A DEB
国际标识:
1974-015E
轨道中心:
EARTH
物体状态:
在轨
发射日期:
1974-03-16 UTC
轨道信息
数据来源: 国际轨道数据
星历时间: 2026-09-12T17:18:26+0800
半长轴: 7135.444km
偏心率: 0.005669
轨道倾角: 99.062°
近地点辐角: 218.139°
升交点赤经: 309.626°
平近点角: 141.578°
近地点: 716.856km
远地点: 797.758km
周期: 99.975分钟
每日圈数: 14.403607
详细信息
发射场:
AFWTR
轨道高度:
LEO
数据来源:
AOE Integration Group
参考系:
TEME
时间系统:
UTC
历元类型:
SGP4
2D轨道图
3D轨道图
轨道高度分析图
轨道倾角分析图
轨道综合分析图
查看轨道综合分析图